STARLINK-5682, 55457

Orbit data source: Space-Track

STARLINK-5682, 55457 is a payload satellite owned by SpaceX/Seattle (US) in LEO that was launched on Thu, 02 Feb 2023 UTC via an FALCON 9 launch vehicle from the Air Force Eastern Test Range (AFETR). Payload-class satellites include a variety of spacecraft equipped with specific instruments for various scientific and technological missions. These include communications satellites like Starlink; space stations such as the ISS; scientific satellites like the Hubble; Earth observation satellites from companies like Planet Labs, Umbra, and HawkEye 360; GPS; miniature CubeSats for education and research; and military/defense satellites.

Loading next visibility...
Identifier
55457, 2023-015J
Orbit
LEO
Country
Flag of USUS
Related business
Manufacturer
SpaceX/Seattle
Mission
Operational Commercial Communications
Bus & Motor
STARLINK, Unknown motor
Mass
305 kg wet, ~290 kg dry
Launch date (UTC)
2023-02-02 (3 years ago)
Launch vehicle
FALCON 9
Launch site
Air Force Eastern Test Range (AFETR)
Object type
Payload
Rocket body
Debris
Shape & HBR
Box + 1 Pan, 10.1 m
Radar Cross Section
13.562 m², Large (>1 m²)

Expand to show TLE details & history
Last TLE update: 12 hours ago

TLE from 12 hours ago
0 STARLINK-5682
1 55457U 23015J   26035.60055236 -.00001756  00000-0 -11493-3 0  9992
2 55457  43.0005 146.0354 0001382 274.3855  85.6830 15.02539965165772
Epoch: 2026-02-04T14:24Z
TLE epoch observation values (Epoch: 2026-02-04T14:24:47.723Z)
Latitude
Longitude
155.07176°
Altitude
558.773 km
Speed
7.584 km/s
True Right ascension
09h 44m 08s
True Declination
0° 00' 00"
Sunlit
Object was in full shadow at epoch
Visualization orbit readout
Latitude
Unknown
Longitude
Unknown
Altitude
Unknown
Speed
Unknown
Apparent Right ascension
Unknown
Apparent Declination
Unknown
Sunlit
N/A
Visualization observer readout
Local Sidereal Time
04:39:29
Azimuth
Unknown
Elevation
Unknown
Doppler factor
Unknown
Orbital elements
Apogee altitude
561.95 km
Perigee altitude
560.032 km
Semi-major axis
6,939.128 km
Eccentricity
0.00014
Inclination
43.0005°
RAAN
146.0354°
Arg. of periapsis
274.3855°
True anomaly
85.69879°
Mean anomaly
85.683°
Eccentric anomaly
85.6909°
Mean motion
3.75479 °/min
Orbital period
95.88 mins
BSTAR
-0.00011493
Loading maneuver chart data...
Computing Atmospheric mass density...
Loading historical data...
Loading historical data...
Loading historical data...
Loading historical data...
Loading historical data...
Loading historical data...
Loading historical data...

Documentation

Showing up to 5 results
|